When you browse on this site, cookies collect data to enhance your experience and personalize the content and advertising you see.
Visit our Privacy Policy to learn more. By continuing to use the site, you agree to this use of cookies and data.
  • In Österreich
  • Länderverzeichnis
  • Für 7 Tage
  • Wassertemperatur
  • Wetterkarte
  • News
  • Widgets
  • user-avatar
    Anmelden

    Stündliche Wetter Dobrovolskoe

    Heute, 18 November, Montag

    Zeit Temperatur Niederschläge Wind Luftdruck Luftfeuchtigkeit
    00:00 -2°C° 0 mm 4 m/S 747 mmHg 83%
    01:00 -2°C° 0 mm 4 m/S 746 mmHg 85%
    02:00 -1°C° 0 mm 3 m/S 747 mmHg 87%
    03:00 -1°C° 0 mm 3 m/S 747 mmHg 89%
    04:00 -1°C° 0 mm 3 m/S 746 mmHg 93%
    05:00 -1°C° 0 mm 2 m/S 746 mmHg 92%
    06:00 -2°C° 0 mm 2 m/S 746 mmHg 92%
    07:00 -2°C° 0 mm 2 m/S 746 mmHg 92%
    08:00 +1°C° 0 mm 1 m/S 746 mmHg 88%
    09:00 +1°C° 0 mm 1 m/S 746 mmHg 85%
    10:00 +2°C° 0 mm 1 m/S 746 mmHg 81%
    11:00 +2°C° 0 mm 1 m/S 746 mmHg 81%
    12:00 +2°C° 0 mm 1 m/S 746 mmHg 80%
    13:00 +2°C° 0 mm 2 m/S 746 mmHg 79%
    14:00 +1°C° 0 mm 2 m/S 746 mmHg 83%
    15:00 +1°C° 0 mm 2 m/S 746 mmHg 86%
    16:00 +1°C° 0 mm 2 m/S 746 mmHg 89%
    17:00 -1°C° 0 mm 2 m/S 745 mmHg 91%
    18:00 -1°C° 0 mm 3 m/S 745 mmHg 93%
    19:00 -1°C° 0 mm 3 m/S 744 mmHg 95%
    20:00 -1°C° 0 mm 3 m/S 744 mmHg 95%
    21:00 -1°C° 0 mm 3 m/S 744 mmHg 96%
    22:00 -2°C° 0 mm 3 m/S 744 mmHg 96%
    23:00 -2°C° 0.4 mm 3 m/S 743 mmHg 96%

    Morgen, 19 November, Dienstag

    Zeit Temperatur Niederschläge Wind Luftdruck Luftfeuchtigkeit
    00:00 -2°C° 0.4 mm 3 m/S 743 mmHg 97%
    01:00 -2°C° 0.4 mm 3 m/S 742 mmHg 97%
    02:00 -2°C° 0.7 mm 3 m/S 743 mmHg 96%
    03:00 -3°C° 0.7 mm 4 m/S 743 mmHg 96%
    04:00 -3°C° 0.7 mm 4 m/S 743 mmHg 95%
    05:00 -5°C° 0.2 mm 5 m/S 744 mmHg 93%
    06:00 -6°C° 0.2 mm 6 m/S 744 mmHg 91%
    07:00 -8°C° 0.2 mm 7 m/S 744 mmHg 89%
    08:00 -11°C° 0 mm 7 m/S 745 mmHg 88%
    09:00 -13°C° 0 mm 8 m/S 746 mmHg 86%
    10:00 -15°C° 0 mm 8 m/S 746 mmHg 85%
    11:00 -15°C° 0 mm 7 m/S 747 mmHg 84%
    12:00 -17°C° 0 mm 7 m/S 747 mmHg 82%
    13:00 -17°C° 0 mm 7 m/S 748 mmHg 81%
    14:00 -18°C° 0 mm 7 m/S 748 mmHg 79%
    15:00 -19°C° 0 mm 7 m/S 749 mmHg 78%
    16:00 -20°C° 0 mm 7 m/S 749 mmHg 76%
    17:00 -21°C° 0 mm 7 m/S 750 mmHg 76%
    18:00 -21°C° 0 mm 7 m/S 750 mmHg 76%
    19:00 -23°C° 0 mm 7 m/S 751 mmHg 76%
    20:00 -24°C° 0 mm 7 m/S 751 mmHg 77%
    21:00 -23°C° 0 mm 6 m/S 751 mmHg 79%
    22:00 -24°C° 0 mm 6 m/S 752 mmHg 80%
    23:00 -24°C° 0 mm 6 m/S 752 mmHg 80%

    übermorgen, 20 November, Mittwoch

    Zeit Temperatur Niederschläge Wind Luftdruck Luftfeuchtigkeit
    00:00 -26°C° 0 mm 6 m/S 752 mmHg 81%
    01:00 -26°C° 0 mm 6 m/S 752 mmHg 81%
    02:00 -26°C° 0 mm 6 m/S 753 mmHg 82%
    03:00 -26°C° 0 mm 6 m/S 753 mmHg 82%
    04:00 -27°C° 0 mm 6 m/S 754 mmHg 82%
    05:00 -27°C° 0 mm 6 m/S 754 mmHg 82%
    06:00 -27°C° 0 mm 6 m/S 754 mmHg 83%
    07:00 -28°C° 0 mm 6 m/S 754 mmHg 83%
    08:00 -27°C° 0 mm 6 m/S 755 mmHg 82%
    09:00 -27°C° 0 mm 6 m/S 755 mmHg 81%
    10:00 -27°C° 0 mm 6 m/S 756 mmHg 79%
    11:00 -26°C° 0 mm 6 m/S 756 mmHg 79%
    12:00 -24°C° 0 mm 6 m/S 756 mmHg 78%
    13:00 -24°C° 0 mm 6 m/S 756 mmHg 78%
    14:00 -24°C° 0 mm 6 m/S 756 mmHg 79%
    15:00 -24°C° 0 mm 6 m/S 757 mmHg 80%
    16:00 -24°C° 0 mm 5 m/S 757 mmHg 81%
    17:00 -24°C° 0 mm 6 m/S 757 mmHg 82%
    18:00 -24°C° 0 mm 6 m/S 758 mmHg 82%
    19:00 -24°C° 0 mm 6 m/S 758 mmHg 83%
    20:00 -24°C° 0 mm 5 m/S 758 mmHg 84%
    21:00 -24°C° 0 mm 5 m/S 758 mmHg 84%
    22:00 -23°C° 0 mm 4 m/S 759 mmHg 84%
    23:00 -23°C° 0 mm 4 m/S 759 mmHg 84%

    21 November, Donnerstag

    Zeit Temperatur Niederschläge Wind Luftdruck Luftfeuchtigkeit
    00:00 -23°C° 0 mm 4 m/S 759 mmHg 85%
    01:00 -23°C° 0 mm 4 m/S 759 mmHg 85%
    02:00 -22°C° 0 mm 3 m/S 759 mmHg 85%
    03:00 -22°C° 0 mm 3 m/S 759 mmHg 85%
    04:00 -22°C° 0 mm 3 m/S 759 mmHg 84%
    05:00 -21°C° 0 mm 3 m/S 759 mmHg 84%
    06:00 -21°C° 0 mm 3 m/S 759 mmHg 83%
    07:00 -19°C° 0 mm 2 m/S 758 mmHg 82%
    08:00 -18°C° 0 mm 2 m/S 759 mmHg 79%
    09:00 -18°C° 0 mm 2 m/S 759 mmHg 75%
    10:00 -15°C° 0 mm 1 m/S 759 mmHg 72%
    11:00 -14°C° 0 mm 1 m/S 758 mmHg 69%
    12:00 -13°C° 0 mm 1 m/S 758 mmHg 67%
    13:00 -12°C° 0 mm 1 m/S 757 mmHg 65%
    14:00 -12°C° 0 mm 1 m/S 757 mmHg 69%
    15:00 -12°C° 0 mm 1 m/S 757 mmHg 72%
    16:00 -12°C° 0 mm 1 m/S 756 mmHg 76%
    17:00 -12°C° 0 mm 1 m/S 756 mmHg 76%
    18:00 -12°C° 0 mm 1 m/S 756 mmHg 76%
    19:00 -12°C° 0 mm 1 m/S 756 mmHg 76%
    20:00 -12°C° 0 mm 1 m/S 756 mmHg 77%
    21:00 -12°C° 0 mm 1 m/S 755 mmHg 77%
    22:00 -12°C° 0 mm 1 m/S 755 mmHg 77%
    23:00 -12°C° 0 mm 1 m/S 755 mmHg 78%

    22 November, Freitag

    Zeit Temperatur Niederschläge Wind Luftdruck Luftfeuchtigkeit
    00:00 -11°C° 0 mm 1 m/S 755 mmHg 78%
    01:00 -11°C° 0 mm 1 m/S 755 mmHg 78%
    02:00 -11°C° 0 mm 1 m/S 755 mmHg 77%
    03:00 -11°C° 0 mm 1 m/S 754 mmHg 76%
    04:00 -11°C° 0 mm 0 m/S 754 mmHg 75%
    05:00 -11°C° 0 mm 0 m/S 754 mmHg 74%
    06:00 -11°C° 0 mm 0 m/S 754 mmHg 73%
    07:00 -11°C° 0 mm 0 m/S 754 mmHg 72%
    08:00 -10°C° 0 mm 0 m/S 754 mmHg 69%
    09:00 -9°C° 0 mm 0 m/S 754 mmHg 66%
    10:00 -9°C° 0 mm 0 m/S 755 mmHg 62%
    11:00 -8°C° 0 mm 1 m/S 754 mmHg 62%
    12:00 -7°C° 0 mm 1 m/S 754 mmHg 61%
    13:00 -8°C° 0 mm 2 m/S 754 mmHg 60%
    14:00 -8°C° 0 mm 2 m/S 754 mmHg 65%
    15:00 -9°C° 0 mm 2 m/S 754 mmHg 70%
    16:00 -10°C° 0 mm 2 m/S 753 mmHg 74%
    17:00 -10°C° 0 mm 2 m/S 753 mmHg 76%
    18:00 -10°C° 0 mm 2 m/S 753 mmHg 77%
    19:00 -10°C° 0 mm 2 m/S 753 mmHg 79%
    20:00 -12°C° 0 mm 2 m/S 753 mmHg 79%
    21:00 -12°C° 0 mm 2 m/S 753 mmHg 80%
    22:00 -12°C° 0 mm 2 m/S 753 mmHg 80%
    23:00 -12°C° 0 mm 2 m/S 753 mmHg 80%

    23 November, Samstag

    Zeit Temperatur Niederschläge Wind Luftdruck Luftfeuchtigkeit
    00:00 -12°C° 0 mm 2 m/S 753 mmHg 81%
    01:00 -12°C° 0 mm 2 m/S 753 mmHg 81%
    02:00 -12°C° 0 mm 2 m/S 752 mmHg 81%
    03:00 -12°C° 0 mm 2 m/S 752 mmHg 81%
    04:00 -12°C° 0 mm 2 m/S 752 mmHg 81%
    05:00 -12°C° 0 mm 2 m/S 752 mmHg 81%
    06:00 -12°C° 0 mm 2 m/S 751 mmHg 81%
    07:00 -12°C° 0 mm 2 m/S 751 mmHg 81%
    08:00 -10°C° 0 mm 2 m/S 751 mmHg 79%
    09:00 -9°C° 0 mm 2 m/S 751 mmHg 76%
    10:00 -9°C° 0 mm 2 m/S 750 mmHg 73%
    11:00 -8°C° 0 mm 2 m/S 750 mmHg 70%
    12:00 -7°C° 0 mm 2 m/S 750 mmHg 67%
    13:00 -6°C° 0 mm 2 m/S 750 mmHg 63%
    14:00 -7°C° 0 mm 2 m/S 749 mmHg 66%
    15:00 -7°C° 0 mm 2 m/S 749 mmHg 69%
    16:00 -8°C° 0 mm 2 m/S 749 mmHg 72%
    17:00 -8°C° 0 mm 2 m/S 749 mmHg 71%
    18:00 -8°C° 0 mm 2 m/S 749 mmHg 70%
    19:00 -8°C° 0 mm 2 m/S 749 mmHg 70%
    20:00 -9°C° 0 mm 2 m/S 749 mmHg 71%
    21:00 -10°C° 0 mm 3 m/S 749 mmHg 73%
    22:00 -10°C° 0 mm 3 m/S 749 mmHg 74%
    23:00 -12°C° 0 mm 3 m/S 749 mmHg 79%
    Mehr zeigen